Location: Unspecified
(36.5600°N, 136.6600°E)
Time: 04:48:01
(UTC+09:00)

BlueWalker 3 - Visible Passes

Search period start: 17 June 2024 00:00
Search period end: 27 June 2024 00:00
Orbit: 480 x 494 km, 53.2° (Epoch: 16 June)

Date Brightness Start Highest point End Pass type
(mag) Time Alt. Az. Time Alt. Az. Time Alt. Az.
17 Jun 5.1 03:11:02 10° N 03:13:01 14° NNE 03:15:00 10° ENE visible
17 Jun 3.1 20:07:56 10° S 20:10:48 21° SE 20:13:40 10° ENE visible
17 Jun 3.3 21:45:14 10° WSW 21:48:45 38° NW 21:52:17 10° NNE visible
18 Jun 5.2 02:45:28 10° N 02:47:19 13° NNE 02:49:10 10° NE visible
18 Jun 3.2 19:42:26 10° S 19:45:09 19° SE 19:47:53 10° E visible
18 Jun 3.2 21:19:31 10° WSW 21:23:04 41° NW 21:26:39 10° NNE visible
19 Jun 5.3 02:19:54 10° N 02:21:37 13° NNE 02:23:17 10° NE visible
19 Jun 2.4 03:56:39 10° NW 04:00:23 65° NE 04:04:05 10° SE visible
19 Jun 3.0 20:53:47 10° WSW 20:57:22 44° NW 21:00:59 10° NE visible
19 Jun 5.5 22:35:41 10° NNW 22:36:20 10° NNW 22:36:59 10° N visible
20 Jun 5.3 01:54:21 10° N 01:55:53 12° NNE 01:57:24 10° NE visible
20 Jun 2.5 03:30:59 10° NW 03:34:41 60° NE 03:38:23 10° ESE visible
20 Jun 2.9 20:28:02 10° WSW 20:31:41 48° NW 20:35:19 10° NE visible
20 Jun 5.5 22:09:37 10° NW 22:10:35 11° NNW 22:11:34 10° N visible
21 Jun 5.4 01:28:47 10° N 01:30:08 11° NNE 01:31:27 10° NE visible
21 Jun 2.6 03:05:18 10° NW 03:08:58 55° NE 03:12:39 10° ESE visible
21 Jun 2.8 20:02:18 10° WSW 20:05:58 52° NW 20:09:38 10° NE visible
21 Jun 5.4 21:43:37 10° NW 21:44:50 11° NNW 21:46:03 10° N visible
22 Jun 5.4 01:03:16 10° N 01:04:23 11° NNE 01:05:29 10° NE visible
22 Jun 2.7 02:39:36 10° NW 02:43:16 50° NE 02:46:54 10° ESE visible
22 Jun 5.3 21:17:38 10° NW 21:19:04 12° NNW 21:20:30 10° N visible
23 Jun 5.4 00:37:46 10° N 00:38:36 11° NNE 00:39:26 10° NNE visible
23 Jun 2.9 02:13:55 10° NW 02:17:32 46° NE 02:21:09 10° ESE visible
23 Jun 3.3 03:52:55 10° W 03:55:23 17° SW 03:57:50 10° SSW visible
23 Jun 5.2 20:51:41 10° NW 20:53:17 12° NNW 20:54:54 10° N visible
24 Jun 5.4 00:12:25 10° NNE 00:12:49 10° NNE 00:13:13 10° NNE visible
24 Jun 3.0 01:48:12 10° NW 01:51:47 43° NE 01:55:22 10° ESE visible
24 Jun 3.2 03:27:03 10° W 03:29:40 18° SW 03:29:53 18° SW visible
24 Jun 5.1 20:25:43 10° NW 20:27:30 13° NNW 20:29:16 10° N visible
25 Jun 3.3 01:22:29 10° NNW 01:25:20 36° N 01:25:20 36° N visible
25 Jun 5.0 19:59:46 10° NW 20:01:41 13° NNW 20:03:38 10° N visible
26 Jun 4.0 00:56:45 10° NNW 00:58:34 24° NNW 00:58:34 24° NNW visible
